EW9174 Weather Reports


time (UTC)temp
C
wind
direction
speed
KPH
gust
KPH
rain 1hr
cm
rain 24hr
cm
rain mn
cm
humidity
%
barometer
mb
20260906213020 35 155 0.0 1.6 0.00 0.00 0.00 34 1000.7
20260906211517 35 156 0.0 1.6 0.00 0.00 0.00 35 1000.8
20260906210013 34 163 0.0 3.2 0.00 0.00 0.00 37 1000.9
20260906204510 33 76 0.0 3.2 0.00 0.00 0.00 39 1001.1
20260906203009 33 79 0.0 3.2 0.00 0.00 0.00 38 1001.3
20260906201507 34 80 0.0 4.8 0.00 0.00 0.00 39 1001.4
20260906200005 33 77 0.0 3.2 0.00 0.00 0.00 41 1001.6
20260906194600 33 76 0.0 1.6 0.00 0.00 0.00 42 1001.8
20260906193059 32 77 0.0 3.2 0.00 0.00 0.00 42 1002.1
20260906191554 32 80 0.0 4.8 0.00 0.00 0.00 43 1002.4
20260906190108 32 90 0.0 3.2 0.00 0.00 0.00 43 1002.8
20260906184552 31 75 0.0 1.6 0.00 0.00 0.00 43 1003.3
20260906183049 31 75 0.0 4.8 0.00 0.00 0.00 45 1003.6
20260906181540 30 76 0.0 1.6 0.00 0.00 0.00 48 1003.9
20260906180038 30 78 0.0 3.2 0.00 0.00 0.00 46 1004.2
20260906174535 29 80 0.0 3.2 0.00 0.00 0.00 49 1004.5
20260906173029 28 81 0.0 1.6 0.00 0.00 0.00 50 1004.6
20260906171526 27 81 0.0 3.2 0.00 0.00 0.00 50 1005.0
20260906170030 27 56 0.0 1.6 0.00 0.00 0.00 53 1005.0
20260906164518 26 56 0.0 3.2 0.00 0.00 0.00 55 1005.1
20260906163015 26 56 0.0 3.2 0.00 0.00 0.00 56 1005.3
20260906161520 26 56 0.0 3.2 0.00 0.00 0.00 57 1005.4
20260906160009 25 56 0.0 1.6 0.00 0.00 0.00 60 1005.4
20260906154511 24 56 0.0 6.4 0.00 0.00 0.00 61 1005.5
20260906153002 23 57 0.0 1.6 0.00 0.00 0.00 65 1005.4
20260906151559 23 57 0.0 1.6 0.00 0.00 0.00 65 1005.5
20260906150059 22 57 0.0 1.6 0.00 0.00 0.00 67 1005.7
20260906144555 22 57 0.0 1.6 0.00 0.00 0.00 68 1005.8
20260906143054 21 57 0.0 3.2 0.00 0.00 0.00 69 1005.8
20260906141554 20 57 0.0 4.8 0.00 0.00 0.00 70 1005.6
20260906140052 19 57 0.0 4.8 0.00 0.00 0.00 73 1005.5
20260906134557 18 57 0.0 1.6 0.00 0.00 0.00 76 1005.4
20260906133109 17 57 0.0 0.0 0.00 0.00 0.00 76 1005.4
20260906131548 18 57 0.0 0.0 0.00 0.00 0.00 76 1005.1
20260906130046 17 57 0.0 3.2 0.00 0.00 0.00 75 1004.5
20260906124543 17 57 0.0 3.2 0.00 0.00 0.00 75 1004.3
20260906123042 17 59 0.0 3.2 0.00 0.00 0.00 75 1004.2
20260906121539 17 58 1.6 6.4 0.00 0.00 0.00 76 1004.0
20260906120041 17 59 0.0 4.8 0.00 0.00 0.00 75 1003.9
20260906114536 17 60 0.0 1.6 0.00 0.00 0.00 75 1003.8
20260906113035 17 61 0.0 3.2 0.00 0.00 0.00 74 1003.8
20260906111538 18 61 0.0 4.8 0.00 0.00 0.00 74 1003.7
20260906110035 18 61 0.0 4.8 0.00 0.00 0.00 73 1003.7
20260906104535 18 61 0.0 3.2 0.00 0.00 0.00 72 1003.6
20260906103032 18 61 0.0 4.8 0.00 0.00 0.00 72 1003.8
20260906094513 19 63 0.0 6.4 0.00 0.00 0.00 68 1003.5
20260906093010 20 63 0.0 4.8 0.00 0.00 0.00 66 1003.5
20260906091508 20 93 0.0 3.2 0.00 0.00 0.00 66 1003.4
20260906090007 20 94 0.0 4.8 0.00 0.00 0.00 66 1003.4
20260906084506 20 96 0.0 3.2 0.00 0.00 0.00 65 1003.3
20260906083005 21 96 0.0 1.6 0.00 0.00 0.00 64 1003.5
20260906081504 21 96 0.0 3.2 0.00 0.00 0.00 64 1003.6
20260906080003 21 98 0.0 3.2 0.00 0.00 0.00 65 1003.5
20260906074603 20 99 0.0 1.6 0.00 0.00 0.00 62 1003.3
20260906073057 20 99 0.0 3.2 0.00 0.00 0.00 60 1003.1
20260906071556 20 100 0.0 1.6 0.00 0.00 0.00 59 1002.9
20260906070052 21 100 0.0 1.6 0.00 0.00 0.00 58 1002.9
20260906064549 21 100 0.0 3.2 0.00 0.00 0.00 57 1002.9
20260906063047 21 100 0.0 1.6 0.00 0.00 0.00 56 1002.8
20260906061545 22 100 0.0 0.0 0.00 0.00 0.00 57 1002.8
20260906060041 22 100 0.0 0.0 0.00 0.00 0.00 55 1002.8
20260906054542 22 100 0.0 0.0 0.00 0.00 0.00 55 1002.9
20260906053043 23 100 0.0 0.0 0.00 0.00 0.00 53 1002.8
20260906051537 23 100 0.0 0.0 0.00 0.00 0.00 51 1003.0
20260906050036 23 100 0.0 1.6 0.00 0.00 0.00 50 1003.4
20260906044535 24 103 0.0 0.0 0.00 0.00 0.00 48 1003.4
20260906043035 24 105 0.0 1.6 0.00 0.00 0.00 47 1003.0
20260906041536 24 105 0.0 1.6 0.00 0.00 0.00 47 1002.9
20260906040040 24 115 0.0 0.0 0.00 0.00 0.00 47 1002.7
20260906034541 25 115 0.0 0.0 0.00 0.00 0.00 48 1002.8
20260906033032 25 115 0.0 0.0 0.00 0.00 0.00 47 1002.7
20260906031533 26 115 0.0 1.6 0.00 0.00 0.00 47 1002.5
20260906030031 26 115 0.0 0.0 0.00 0.00 0.00 46 1002.2
20260906024529 27 121 0.0 0.0 0.00 0.00 0.00 47 1002.0
20260906023030 27 122 0.0 0.0 0.00 0.00 0.00 43 1001.7
20260906021529 27 122 0.0 0.0 0.00 0.00 0.00 40 1001.4
20260906020032 28 122 0.0 0.0 0.00 0.00 0.00 39 1000.9
20260906014540 29 122 0.0 0.0 0.00 0.00 0.00 37 1000.7
20260906013031 31 122 0.0 0.0 0.00 0.00 0.00 36 1000.5
20260906011527 33 122 0.0 0.0 0.00 0.00 0.00 33 1000.4
20260906010027 35 122 0.0 0.0 0.00 0.00 0.00 31 1000.4
20260906004526 35 122 0.0 0.0 0.00 0.00 0.00 30 1000.4
20260906003025 35 122 0.0 0.0 0.00 0.00 0.00 31 1000.5
20260906001524 34 122 0.0 1.6 0.00 0.00 0.00 27 1000.5
20260906000024 33 122 0.0 4.8 0.00 0.00 0.00 31 1000.5
20260905234522 33 119 0.0 4.8 0.00 0.00 0.00 29 1000.4
20260905233033 34 46 0.0 1.6 0.00 0.00 0.00 28 1000.2
20260905231523 34 46 0.0 1.6 0.00 0.00 0.00 31 1000.2
20260905230020 34 46 0.0 1.6 0.00 0.00 0.00 27 1000.3
20260905224521 35 47 0.0 1.6 0.00 0.00 0.00 26 1000.4
20260905223018 37 47 0.0 1.6 0.00 0.00 0.00 23 1000.3
20260905221529 38 47 0.0 1.6 0.00 0.00 0.00 22 1000.4
20260905220017 38 46 0.0 1.6 0.00 0.00 0.00 22 1000.4
20260905214515 38 46 0.0 1.6 0.00 0.00 0.00 22 1000.5